RH
84 92 75 79 64 58 54 69 77 79 78 78 76 82 76 75 72 72 73 62 37 33 35 35 36 35 43 74 50 35 34 34 32 31 29 31 34 35 30 33 58 42 31
72 92 76 80 65 64 62 48 50 69 70 71 75 76 76 76 73 72 73 65 48 40 68 82 80 69 77 84 46 51 69 76 67 47 34 43 40 31 45 55 86 41 35
87 90 77 74 71 64 64 67 61 54 64 69 71 74 77 76 70 75 74 67 53 45 58 71 76 76 81 70 63 52 76 86 78 47 54 88 72 30 35 38 44 48 52
85 89 92 76 75 69 65 63 66 64 60 59 64 67 73 72 79 63 74 66 52 50 48 63 69 74 65 44 33 40 63 77 95 64 83 87 93 76 86 74 73 96 96
60 52 27 33 70 72 67 67 68 77 72 63 57 64 69 74 71 52 71 60 60 66 63 56 50 41 35 32 33 38 40 55 55 65 92 93 97 85 92 93 97 97 96
52 51 24 22 22 51 77 70 70 70 78 76 60 59 64 72 65 58 68 62 80 78 77 75 64 40 30 29 31 33 36 34 35 88 99 91 89 80 74 81 86 80 75
38 25 23 22 20 21 45 77 72 71 70 80 71 68 71 72 72 82 90 77 81 81 77 74 62 54 54 47 33 33 33 31 72 94 96 94 84 61 62 65 64 61 60
31 26 26 24 23 21 21 56 78 80 72 70 83 73 68 74 78 80 84 80 74 81 64 57 50 54 62 53 52 40 34 35 77 93 92 93 83 76 68 64 64 59 53
28 28 29 29 28 26 24 22 28 70 83 75 73 86 76 67 70 77 84 79 71 75 34 22 31 53 61 75 64 62 55 73 96 96 98 93 89 87 78 74 68 63 55
28 28 29 29 29 29 28 24 22 20 49 87 81 78 87 82 72 76 79 83 74 80 46 34 24 43 59 68 66 56 58 73 92 95 95 91 90 82 75 64 55 43 35
28 29 29 28 28 29 29 27 24 22 19 58 88 87 85 89 92 84 79 83 76 79 82 59 41 36 54 63 68 61 62 82 98 92 87 84 80 74 69 55 41 28 16
27 29 28 28 31 31 30 29 27 25 24 38 88 95 92 100 100 97 90 76 77 80 94 86 76 44 48 80 68 69 78 84 85 94 82 75 71 73 68 55 66 30 46
27 28 28 30 33 34 33 33 32 27 26 26 34 95 96 95 98 97 86 82 80 81 93 100 95 81 54 89 90 85 81 83 84 88 93 76 73 68 64 79 82 48 78
28 26 30 34 35 35 34 28 26 32 30 28 27 30 73 84 87 91 92 97 82 89 81 95 100 92 69 95 87 81 82 82 80 82 85 76 69 71 73 81 66 70 77
24 28 33 34 34 32 33 34 29 27 34 34 32 30 28 43 84 90 92 90 88 86 82 95 100 94 88 98 88 84 83 82 80 82 86 71 72 65 85 78 74 82 72
23 24 29 33 33 33 31 32 34 33 33 39 38 37 35 31 41 89 93 95 87 86 86 82 99 93 94 93 91 87 86 85 83 88 68 77 73 66 94 80 72 91 92
24 24 27 30 34 33 34 35 36 35 37 43 46 44 41 38 34 38 82 94 98 95 93 90 92 100 96 96 90 89 89 86 87 90 75 77 75 78 89 81 74 88 90
23 23 24 25 28 30 32 38 44 42 41 47 51 51 47 42 38 36 53 83 98 100 100 100 94 99 100 100 89 94 89 89 90 89 92 81 78 72 80 94 77 77 89
25 24 24 21 21 27 32 45 51 50 49 52 53 54 54 49 44 41 73 81 64 99 100 99 100 100 100 99 88 89 93 95 97 95 90 77 78 79 82 97 91 74 75
27 26 23 17 24 29 32 44 52 52 54 54 58 58 57 56 54 53 70 84 83 92 99 100 97 100 97 100 99 86 79 98 99 94 98 78 81 73 90 98 96 90 83
28 27 17 21 28 31 36 44 51 52 52 54 60 64 65 66 66 67 66 74 94 78 88 95 100 97 100 100 97 98 92 98 99 84 99 87 87 78 75 90 93 96 83
29 19 22 27 30 37 37 52 57 57 55 56 60 66 75 78 76 73 73 69 64 85 86 88 94 100 100 99 98 90 100 99 100 91 84 94 86 77 81 98 96 94 86
21 25 28 38 44 45 50 63 64 62 62 60 60 64 66 66 68 73 74 74 75 66 79 97 89 93 100 99 98 89 99 99 99 93 96 97 86 79 80 83 94 94 89
27 34 43 55 57 59 64 64 66 70 70 67 68 64 63 63 66 68 71 72 73 87 91 82 89 89 94 99 100 99 91 81 99 100 90 97 91 95 91 86 91 96 90
32 41 54 62 65 70 73 70 72 78 77 70 64 62 72 76 76 78 76 74 78 82 96 97 98 82 99 99 100 100 96 93 88 86 95 99 99 99 100 91 84 88 94
33 42 60 66 71 72 74 75 75 80 84 82 74 77 85 90 84 83 88 84 86 84 90 92 86 85 95 99 100 99 100 90 92 86 82 86 95 97 99 96 88 89 96
Wind_Speed
3 6 9 7 8 8 8 9 9 8 9 9 10 10 10 9 9 9 8 7 7 8 8 8 8 8 8 9 8 11 13 13 13 14 14 14 14 13 14 15 15 15 17
6 6 11 9 8 9 8 8 8 9 8 8 10 11 10 10 8 8 7 5 5 7 10 10 11 10 11 9 10 12 11 12 13 13 14 15 13 14 15 15 17 15 17
8 8 8 8 8 9 10 9 9 9 9 9 8 10 11 9 10 7 7 6 5 7 12 11 11 12 12 9 8 11 11 12 13 12 14 10 12 15 15 14 14 15 16
8 7 6 5 7 8 9 10 11 11 11 11 11 12 12 10 11 6 8 7 7 7 8 13 13 12 10 8 9 13 12 11 13 11 10 11 11 15 14 14 13 13 14
7 5 4 3 2 5 9 10 11 12 12 12 13 14 13 14 13 10 11 9 9 7 7 10 11 10 9 9 10 13 13 12 12 10 10 11 12 14 14 16 14 18 18
4 2 2 2 3 6 6 10 11 13 13 12 13 14 15 15 13 11 11 11 10 9 10 10 10 9 9 9 11 12 12 12 12 9 9 13 15 15 15 12 12 11 10
4 3 3 3 4 6 9 9 10 13 14 14 14 14 15 15 14 13 12 13 12 12 12 12 10 10 11 10 10 11 11 12 10 9 12 16 15 13 13 10 8 6 5
6 5 4 4 4 4 6 10 12 13 15 16 16 16 16 15 15 15 14 14 14 13 14 13 12 12 12 12 11 10 9 11 11 12 15 15 13 10 9 7 5 5 5
9 7 7 6 6 6 7 9 12 14 14 16 18 17 17 16 16 16 16 15 14 15 15 14 14 15 13 13 11 9 9 10 12 12 18 14 11 9 7 7 7 7 8
9 9 8 8 9 10 11 12 12 15 16 16 16 18 19 18 18 18 17 18 16 18 17 15 15 17 16 14 12 12 12 12 13 14 13 11 9 7 6 7 8 9 9
13 11 11 11 11 12 13 13 14 14 17 18 18 17 20 21 20 19 20 19 19 19 20 17 16 18 18 17 15 14 14 14 13 15 12 9 8 8 9 8 7 8 8
13 13 14 13 12 12 13 14 15 15 15 17 17 19 20 19 20 20 20 20 20 20 22 23 19 19 19 18 19 16 15 14 16 13 13 11 11 10 9 7 6 9 16
16 15 14 14 14 13 15 16 17 17 17 18 20 18 20 21 21 23 24 22 22 23 24 25 24 22 21 17 17 19 15 15 15 16 15 14 12 10 8 8 8 14 19
16 14 14 15 15 15 15 15 18 19 19 18 20 24 22 23 24 24 24 21 26 24 27 29 31 26 23 20 18 19 18 17 16 14 15 14 10 10 12 11 12 15 17
16 14 14 15 15 16 16 15 17 19 21 20 19 21 25 27 26 24 24 25 25 26 26 30 33 31 26 21 21 21 20 18 16 15 15 15 12 11 17 13 16 16 18
14 13 14 15 16 16 17 17 18 18 21 22 21 20 21 24 28 28 28 27 28 28 27 30 35 35 31 25 23 23 22 20 18 18 19 16 16 12 18 16 17 17 17
15 14 14 15 17 18 18 18 18 19 20 23 23 22 21 21 25 28 27 29 29 30 30 31 36 37 36 30 26 23 22 21 20 20 22 18 18 16 19 20 20 19 18
18 17 16 17 18 19 19 19 18 17 19 22 22 21 21 22 23 25 26 26 29 30 32 34 34 36 40 34 31 22 22 22 21 21 21 21 19 19 21 22 22 26 22
22 20 19 19 20 20 20 19 19 18 19 22 23 22 21 20 20 22 21 21 31 28 27 34 35 39 40 39 35 27 23 23 23 23 23 23 19 17 25 23 20 24 27
24 22 21 20 19 19 19 20 20 20 21 22 23 23 22 21 19 19 20 22 22 25 34 32 35 38 36 40 32 33 28 25 23 26 24 25 21 19 23 25 24 21 23
23 20 21 21 19 19 19 20 21 22 23 23 24 23 23 24 23 22 22 23 24 32 24 35 31 40 35 39 34 33 32 30 26 29 26 29 23 23 26 28 24 22 22
20 19 20 20 20 20 19 19 19 19 20 21 23 23 24 24 26 27 27 26 28 30 29 28 35 33 40 45 40 38 29 31 29 33 34 30 26 24 26 27 27 23 24
17 15 16 17 15 15 15 15 17 20 22 22 23 24 22 22 24 26 28 30 30 30 32 28 31 37 37 38 43 31 21 13 31 40 36 34 30 29 28 28 29 26 26
12 12 13 10 9 11 14 15 16 17 18 17 18 19 21 26 27 28 30 29 30 29 29 33 32 33 37 45 43 46 37 25 25 20 37 33 33 31 32 30 30 30 31
9 12 12 9 8 11 14 16 17 19 21 19 20 23 22 23 24 25 28 32 33 32 30 28 29 35 37 44 47 49 45 31 27 30 27 36 37 35 33 33 32 33 30
8 11 12 11 10 13 16 18 20 21 23 26 25 23 24 24 27 28 26 29 33 33 32 33 34 36 37 41 43 48 51 45 36 34 28 40 39 37 37 37 32 31 30
Wind_Direction
127 164 169 164 163 168 175 187 185 174 170 174 181 181 168 158 147 143 144 133 127 132 136 145 146 144 136 130 110 122 125 123 120 118 115 115 120 122 122 117 104 116 114
131 134 169 169 174 181 180 187 196 203 196 188 186 185 184 178 168 154 153 149 137 135 139 142 147 144 143 139 123 129 128 126 127 123 117 118 119 119 124 126 132 129 126
120 110 147 172 181 192 198 196 206 207 207 198 198 192 190 185 182 168 170 172 167 151 158 163 164 160 158 162 153 151 149 143 138 125 114 115 125 129 128 128 123 119 119
130 121 117 135 193 195 203 198 206 212 220 217 206 211 206 204 194 191 197 188 188 180 173 177 180 185 191 195 188 171 163 153 153 134 118 128 128 127 123 136 133 143 122
127 129 131 129 163 190 209 209 206 212 216 220 219 218 219 215 215 228 206 198 194 191 186 182 190 192 191 182 175 172 171 170 166 145 144 142 141 137 132 121 121 124 121
136 147 181 218 233 237 235 220 219 217 222 222 219 220 220 221 226 215 208 200 194 194 196 185 174 177 174 171 170 172 174 173 167 158 158 164 160 155 144 136 136 137 136
184 216 265 277 260 241 242 242 236 228 222 225 218 219 216 216 220 212 207 200 200 208 204 196 193 182 170 166 172 175 178 178 166 171 175 156 157 150 147 147 150 161 169
217 237 253 267 279 274 246 247 249 244 233 226 225 219 219 217 218 216 210 207 210 209 205 207 202 187 178 168 165 166 174 180 171 181 161 160 156 162 159 168 187 220 238
232 244 242 248 267 273 272 260 252 247 242 235 228 225 219 220 220 219 217 218 218 210 204 207 203 194 188 178 178 185 178 174 172 172 167 165 169 188 203 214 230 243 253
244 246 246 247 258 262 265 265 260 251 244 239 237 230 226 222 221 224 224 225 221 217 207 206 202 196 195 198 201 198 185 177 177 177 188 184 188 218 246 248 253 256 247
253 253 255 261 263 261 258 261 259 255 247 240 236 234 229 228 228 224 227 227 224 219 216 211 211 201 199 204 209 207 198 184 195 203 210 208 234 248 263 266 261 226 191
253 257 261 263 263 260 260 256 256 254 250 240 238 233 230 227 226 226 229 228 228 224 222 217 217 209 202 205 207 205 202 198 197 203 221 227 241 245 255 249 207 182 152
256 257 260 262 261 263 264 258 252 252 251 245 238 235 235 228 226 229 231 229 227 224 222 221 219 214 204 202 205 203 202 198 201 205 214 222 232 245 238 195 198 167 155
255 255 253 257 262 268 271 263 257 248 248 249 244 239 235 237 236 232 228 228 228 226 223 221 218 218 210 206 207 202 205 204 205 207 218 212 233 226 205 201 185 163 161
252 253 252 257 262 268 271 270 261 253 244 246 247 245 241 240 239 236 234 231 231 230 225 222 219 220 220 212 209 207 207 208 210 210 209 206 219 215 197 192 180 174 174
250 259 258 258 261 266 269 273 269 256 245 241 245 248 247 243 241 242 240 238 236 234 230 228 226 224 225 222 213 209 209 208 209 208 207 210 212 209 203 190 196 179 175
253 258 261 264 271 274 273 271 266 260 249 240 242 247 253 253 249 242 241 239 240 240 238 236 235 231 227 226 221 212 209 210 209 207 210 207 206 221 213 196 201 189 179
248 256 266 271 274 276 275 271 265 255 248 242 242 247 255 260 256 244 239 238 241 241 238 239 238 235 221 218 221 212 213 208 209 206 206 205 210 222 212 206 200 205 193
247 252 264 272 277 276 271 266 262 256 246 242 245 250 256 260 259 248 237 246 235 244 246 243 241 239 241 224 225 210 211 214 206 205 207 206 217 218 209 205 199 202 210
239 248 263 273 275 274 267 261 262 260 252 247 246 249 257 259 256 257 242 236 241 235 242 245 245 240 236 230 212 212 205 214 208 209 209 209 209 214 205 210 206 212 210
233 249 266 270 274 271 267 257 260 262 260 257 253 251 251 254 258 256 252 245 241 234 245 241 241 230 231 220 209 212 205 211 211 213 210 213 208 216 219 214 213 210 221
233 253 261 272 276 270 261 261 260 262 261 261 261 257 253 253 252 254 255 251 246 243 242 240 240 237 225 229 208 202 205 207 210 213 217 213 208 224 220 217 218 215 223
237 250 269 279 278 267 253 252 261 262 259 257 260 267 270 273 267 256 253 253 250 246 241 238 239 235 216 214 215 199 193 194 199 207 213 214 212 216 220 226 221 220 225
238 261 273 281 273 258 248 257 265 265 262 261 253 256 272 279 276 267 252 249 250 245 242 238 239 239 236 232 219 211 205 196 187 186 209 216 213 215 217 219 224 224 229
249 264 269 269 269 261 258 259 263 265 263 251 253 263 279 278 276 274 266 253 245 243 240 236 233 234 230 230 226 211 210 205 204 193 195 209 210 214 220 224 223 228 227
264 275 271 271 268 267 266 265 266 264 261 258 261 271 276 287 280 272 266 259 245 242 240 237 233 234 229 226 231 216 214 212 209 207 204 214 218 219 220 224 223 223 220